Location: Newark
(42.9858°N, 0.6717°E)
Time: 13:53:48
(UTC+00:00)

Explorer 7 - Visible Passes

Search period start: 19 November 2019 00:00
Search period end: 29 November 2019 00:00
Orbit: 485 x 680 km, 50.3° (Epoch: 18 November)

Date Brightness Start Highest point End Pass type
(mag) Time Alt. Az. Time Alt. Az. Time Alt. Az.
19 Nov 8.7 04:12:57 27° ENE 04:12:57 27° ENE 04:15:12 10° E visible
19 Nov 6.7 05:49:17 18° WNW 05:52:14 70° SW 05:56:05 10° SE visible
20 Nov 8.4 04:17:55 33° ENE 04:17:55 33° ENE 04:20:26 10° E visible
20 Nov 7.3 05:54:15 16° WNW 05:57:08 43° SW 06:00:48 10° SSE visible
21 Nov 8.1 04:22:57 39° E 04:22:57 39° E 04:25:36 10° ESE visible
21 Nov 8.0 05:59:17 14° W 06:01:56 27° SW 06:05:14 10° SSE visible
22 Nov 7.9 04:28:02 40° ESE 04:28:02 40° ESE 04:30:38 10° ESE visible
22 Nov 8.6 06:04:23 11° W 06:06:39 17° SW 06:09:11 10° S visible
23 Nov 8.1 04:33:12 33° SSE 04:33:12 33° SSE 04:35:30 10° SE visible
24 Nov 8.6 04:38:26 23° SSE 04:38:26 23° SSE 04:40:09 10° SSE visible
25 Nov 9.2 04:43:45 14° S 04:43:45 14° S 04:44:28 10° S visible
28 Nov 9.7 18:53:09 10° S 18:53:32 12° S 18:53:32 12° S visible
